Weather History for EDDN - March, 2013

Change the Weather History Date:

Saturday, March 23, 2013

  Actual Average Record
Temperature  
Mean Temperature 33 °F -  
Max Temperature 38 °F 54 °F 66 °F (2012)
Min Temperature 28 °F 36 °F 23 °F (2003)
Degree Days  
Heating Degree Days 32    
Moisture  
Dew Point 19 °F    
Average Humidity 57    
Maximum Humidity 69    
Minimum Humidity 39    
Precipitation  
Precipitation 0.00 in 0.06 in - ()
Sea Level Pressure  
Sea Level Pressure 29.98 in    
Wind  
Wind Speed 10 mph ()    
Max Wind Speed 18 mph    
Max Gust Speed 23 mph    
Visibility 9.9 miles    
Events Snow    
Averages and records for this station are not official NWS values.
T = Trace of Precipitation, MM = Missing Value Source: Averaged Metar Reports

Daily Weather History Graph

Daily Weather History Graph

Search for Another Location

Airport or City:

Trip Planner

Search our weather history database for the weather conditions in past years. The results will help you decide how hot, cold, wet, or windy it might be!

Date:

Astronomy

Mar. 23, 2013 Rise Set
Actual Time 6:12 AM CET 6:33 PM CET
Civil Twilight 5:40 AM CET 7:05 PM CET
Nautical Twilight 5:02 AM CET 7:43 PM CET
Astronomical Twilight 4:23 AM CET 8:22 PM CET
Moon 2:25 PM CET (3/23) 3:58 AM CET (3/23)
Length of Visible Light 13h 25m
Length of Day
12h 21m
Waxing Gibbous, 83% of the Moon is Illuminated
Mar 23
Waxing Gibbous
Mar 27
Full
Apr 3
Last Quarter
Apr 10
New
Apr 18
First Quarter

Hourly Weather History & Observations

Time (CET) Temp. Windchill Dew Point Humidity Pressure Visibility Wind Dir Wind Speed Gust Speed Precip Events Conditions
12:00 AM 29 °F - 20 °F 57% 30.04 in 12 mi East 8.9 mph - -   Scattered Clouds
12:20 AM 28.4 °F 20.4 °F 19.4 °F 69% 29.98 in - East 8.1 mph - N/A   Clear
12:50 AM 28.4 °F 22.2 °F 19.4 °F 69% 29.98 in - East 5.8 mph - N/A   Clear
1:00 AM 29 °F - 20 °F 57% 30.03 in 12 mi East 6.7 mph - -   Scattered Clouds
1:20 AM 28.4 °F 21.2 °F 19.4 °F 69% 29.98 in - East 6.9 mph - N/A   Clear
1:50 AM 28.4 °F 21.2 °F 19.4 °F 69% 29.98 in - East 6.9 mph - N/A   Clear
2:00 AM 29 °F - 20 °F 58% 30.03 in 12 mi East 6.7 mph - -   Partly Cloudy
2:20 AM 30.2 °F 21.3 °F 21.2 °F 69% 29.95 in - East 10.4 mph - N/A   Clear
2:50 AM 30.2 °F 21.9 °F 21.2 °F 69% 29.98 in - East 9.2 mph - N/A   Clear
3:00 AM 29 °F - 21 °F 63% 30.03 in 12 mi East 8.9 mph - -   Mostly Cloudy
3:20 AM 30.2 °F 22.6 °F 21.2 °F 69% 29.95 in - East 8.1 mph - N/A   Clear
3:50 AM 30.2 °F 23.4 °F 21.2 °F 69% 29.95 in - East 6.9 mph - N/A   Clear
4:20 AM 30.2 °F 22.6 °F 21.2 °F 69% 29.95 in - East 8.1 mph - N/A   Clear
4:50 AM 30.2 °F 21.9 °F 21.2 °F 69% 29.95 in - East 9.2 mph - N/A   Clear
5:00 AM 29 °F - 21 °F 62% 30.01 in 12 mi ENE 8.9 mph - -   Mostly Cloudy
5:20 AM 30.2 °F 21.3 °F 21.2 °F 69% 29.95 in - East 10.4 mph - N/A   Clear
5:50 AM 30.2 °F 21.9 °F 21.2 °F 69% 29.95 in - East 9.2 mph - N/A   Clear
6:00 AM 29 °F - 21 °F 60% 30.02 in 9 mi East 8.9 mph - -   Overcast
6:20 AM 30.2 °F 21.9 °F 21.2 °F 69% 29.95 in - ENE 9.2 mph - N/A   Clear
6:50 AM 30.2 °F 21.9 °F 21.2 °F 69% 29.98 in - East 9.2 mph - N/A   Clear
7:00 AM 30 °F - 21 °F 57% 30.03 in 12 mi East 8.9 mph - -   Overcast
7:20 AM 30.2 °F 21.3 °F 21.2 °F 69% 29.98 in - East 10.4 mph - N/A   Clear
7:50 AM 30.2 °F 21.3 °F 19.4 °F 64% 29.98 in 6.2 mi East 10.4 mph - N/A   Mostly Cloudy
8:00 AM 30 °F - 20 °F 56% 30.04 in 12 mi East 11.2 mph - -   Overcast
8:20 AM 30.2 °F 20.8 °F 19.4 °F 64% 29.98 in 6.2 mi East 11.5 mph - N/A   Mostly Cloudy
8:50 AM 30.2 °F 21.3 °F 19.4 °F 64% 29.98 in 6.2 mi East 10.4 mph - N/A   Mostly Cloudy
9:00 AM 31 °F - 19 °F 50% 30.04 in 14 mi East 11.2 mph - -   Overcast
9:20 AM 32.0 °F 22.1 °F 19.4 °F 60% 29.98 in 6.2 mi East 13.8 mph - N/A   Mostly Cloudy
9:50 AM 32.0 °F 22.1 °F 21.2 °F 64% 29.98 in 6.2 mi East 13.8 mph - N/A   Mostly Cloudy
10:20 AM 32.0 °F 21.2 °F 19.4 °F 60% 29.98 in 6.2 mi East 16.1 mph - N/A   Mostly Cloudy
10:50 AM 32.0 °F 20.5 °F 19.4 °F 60% 29.98 in 6.2 mi East 18.4 mph - N/A   Mostly Cloudy
11:00 AM 32 °F - 20 °F 48% 30.04 in 12 mi East 17.9 mph - -   Partly Cloudy
11:20 AM 32.0 °F 22.5 °F 19.4 °F 60% 29.98 in 6.2 mi East 12.7 mph - N/A   Mostly Cloudy
11:50 AM 33.8 °F 25.8 °F 21.2 °F 60% 29.98 in 6.2 mi ENE 10.4 mph 21.9 mph N/A   Mostly Cloudy
12:00 PM 34 °F - 21 °F 45% 30.03 in 12 mi ENE 11.2 mph - -   Partly Cloudy
12:20 PM 33.8 °F 24.8 °F 19.4 °F 56% 29.98 in 6.2 mi East 12.7 mph - N/A   Mostly Cloudy
12:50 PM 33.8 °F 24.8 °F 21.2 °F 60% 29.98 in 6.2 mi East 12.7 mph - N/A   Mostly Cloudy
1:00 PM 35 °F - 21 °F 44% 30.03 in 12 mi East 13.4 mph - -   Scattered Clouds
1:20 PM 33.8 °F 24.8 °F 19.4 °F 56% 29.98 in 6.2 mi East 12.7 mph - N/A   Mostly Cloudy
1:50 PM 35.6 °F 27.5 °F 21.2 °F 56% 29.95 in 6.2 mi ENE 11.5 mph - N/A   Mostly Cloudy
2:00 PM 36 °F - 21 °F 41% 30.01 in 12 mi ENE 11.2 mph - -   Scattered Clouds
2:20 PM 37.4 °F 28.2 °F 21.2 °F 52% 29.95 in 6.2 mi ESE 16.1 mph - N/A   Mostly Cloudy
2:50 PM 35.6 °F 27.1 °F 19.4 °F 52% 29.95 in - East 12.7 mph - N/A   Clear
3:00 PM 36 °F - 20 °F 39% 30.00 in 14 mi ENE 11.2 mph - -   Partly Cloudy
3:20 PM 35.6 °F 27.1 °F 19.4 °F 52% 29.95 in - ENE 12.7 mph - N/A   Clear
3:50 PM 35.6 °F 27.1 °F 19.4 °F 52% 29.95 in - East 12.7 mph - N/A   Clear
4:20 PM 35.6 °F 26.2 °F 19.4 °F 52% 29.95 in - East 15.0 mph - N/A   Clear
4:50 PM 35.6 °F 25.9 °F 19.4 °F 52% 29.95 in - East 16.1 mph - N/A   Clear
5:00 PM 35 °F - 19 °F 39% 30.00 in 14 mi East 15.7 mph - -   Partly Cloudy
5:20 PM 33.8 °F 24.3 °F 19.4 °F 56% 29.95 in - East 13.8 mph - N/A   Clear
5:50 PM 33.8 °F 24.3 °F 19.4 °F 56% 29.95 in - East 13.8 mph - N/A   Clear
6:00 PM 33 °F - 19 °F 42% 30.00 in 14 mi East 13.4 mph - -   Scattered Clouds
6:20 PM 33.8 °F 25.3 °F 17.6 °F 52% 29.95 in - East 11.5 mph - N/A   Clear
6:50 PM 32.0 °F 23.6 °F 19.4 °F 60% 29.95 in - East 10.4 mph - N/A   Clear
7:00 PM 33 °F - 19 °F 42% 30.02 in 12 mi East 8.9 mph - -   Scattered Clouds
7:20 PM 32.0 °F 22.5 °F 19.4 °F 60% 29.95 in - East 12.7 mph - N/A   Clear
7:50 PM 32.0 °F 22.5 °F 17.6 °F 55% 29.98 in - East 12.7 mph - N/A   Clear
8:00 PM 32 °F - 18 °F 44% 30.03 in 12 mi East 13.4 mph - -   Mostly Cloudy
8:20 PM 32.0 °F 23.0 °F 19.4 °F 60% 29.98 in - East 11.5 mph - N/A   Clear
8:50 PM 32.0 °F 21.6 °F 17.6 °F 55% 29.98 in - East 15.0 mph - N/A   Clear
9:00 PM 32 °F - 18 °F 43% 30.03 in 12 mi East 15.7 mph - - Snow Light Snow
9:20 PM 32.0 °F 23.6 °F 17.6 °F 55% 29.98 in - East 10.4 mph 23.0 mph N/A   Clear
9:50 PM 32.0 °F 22.5 °F 15.8 °F 51% 29.98 in - East 12.7 mph - N/A   Clear
10:20 PM 30.2 °F 22.6 °F 15.8 °F 55% 29.98 in - East 8.1 mph - N/A   Clear
10:50 PM 30.2 °F 20.2 °F 14.0 °F 51% 29.98 in - East 12.7 mph - N/A   Clear
11:00 PM 30 °F - 15 °F 39% 30.04 in 16 mi East 13.4 mph - -   Mostly Cloudy
11:20 PM 30.2 °F 20.2 °F 14.0 °F 51% 29.98 in - East 12.7 mph - N/A   Clear
11:50 PM 28.4 °F 19.1 °F 14.0 °F 55% 29.98 in - East 10.4 mph - N/A   Clear